Weather in Puzhmez

Russia / Udmurt Republic     57°55′37″N   53°32′26″E
temp.,
°C
wind,
m/s
gust,
m/s
humid.,
%
clouds,
%
prec.,
mm/h
press.,
hPa
HPBL,
m
4 december, sat
sat401:00−6s1498100 0.2 101196
04:00−2sse3997100 0.6 1010422
07:000sse51498100 0.6 1006722
10:00+1s61698100 1.4 1003831
13:00+2ssw71797100 0.1 10011072
16:00+1ssw71597100 1.1 10011087
19:000wsw51089100 0.9 1003970
22:00−2wsw4985100 1.0 1005805
5 december, sun
sun501:00−3sw4986100 0.1 1006783
04:00−4sw4994100 0.4 1008721
07:00−5wsw499296 0.3 1008553
10:00−5wsw4992100 0.4 10101046
13:00−10w4128452 0.2 1012640
16:00−14w4108881 0.2 1016569
19:00−16w399198 0.0 1018485
22:00−16w379379 0.0 1020373
6 december, mon
mon601:00−17wnw279332 0.0 1021299
04:00−18wnw269411 0.0 1023241
07:00−18wnw25955 0.0 1024184
10:00−18nw24925 0.0 1026136
13:00−15nw238648 0.0 1027245
16:00−17nw13965 0.0 102980
19:00−18nnw13985 0.0 103163
22:00−19nnw11985 0.0 103233
7 december, tue
tue701:00−20nw11985 0.0 103312
04:00−20wnw11975 0.0 103424
07:00−20nw11965 0.0 103511
10:00−18nnw11925 0.0 103630
13:00−13ne018562 0.0 103688
16:00−17ene119783 0.0 10379
19:00−17e2396100 0.0 103756
22:00−13ese2686100 0.0 1036168
8 december, wed
wed801:00−12ese3985100 0.0 1034249
04:00−11ese41387100 0.2 1032353
07:00−10se51491100 1.3 1029509
10:00−8se51494100 5.5 1026545
13:00−6sse41295100 4.3 1023452
16:00−1s41498100 5.6 1022598
19:00+1ssw41298100 0.3 1023612
22:00+1ssw41191100 0.4 1023509